Location: Bothwell
(41.7170°N, 112.2589°W)
Time: 10:42:13
(UTC+00:00)

Courier 1B - All Passes

Search period start: 15 May 2026 00:00
Search period end: 25 May 2026 00:00
Orbit: 962 x 1209 km, 28.3° (Epoch: 14 May)

Date Brightness Start Highest point End Pass type
(mag) Time Alt. Az. Time Alt. Az. Time Alt. Az.
15 May - 15:30:59 10° SSW 15:35:42 18° SSE 15:40:35 10° ESE daylight
15 May - 17:22:41 10° SW 17:28:56 29° S 17:35:23 10° ESE daylight
15 May - 19:16:04 10° WSW 19:22:21 27° S 19:28:43 10° SE daylight
15 May - 21:11:07 10° WSW 21:15:36 16° SSW 21:20:04 10° SSE daylight
16 May - 14:38:24 10° S 14:42:03 14° SSE 14:45:46 10° SE daylight
16 May - 16:29:10 10° SW 16:35:07 26° S 16:41:17 10° ESE daylight
16 May - 18:22:10 10° WSW 18:28:30 29° S 18:35:00 10° SE daylight
16 May - 20:16:34 10° WSW 20:21:50 20° SSW 20:27:07 10° SSE daylight
17 May - 13:47:01 10° SSE 13:48:25 11° SSE 13:49:49 10° SE daylight
17 May - 15:35:50 10° SW 15:41:21 23° SSE 15:47:05 10° ESE daylight
17 May - 17:28:23 10° WSW 17:34:39 29° S 17:41:08 10° SE daylight
17 May - 19:22:19 10° WSW 19:28:02 23° SSW 19:33:50 10° SSE daylight
17 May - 21:20:38 10° SSW 21:21:08 10° SSW 21:21:39 10° SSW daylight
18 May - 14:42:43 10° SSW 14:47:38 20° SSE 14:52:44 10° ESE daylight
18 May - 16:34:45 10° SW 16:40:50 29° S 16:47:12 10° ESE daylight
18 May - 18:28:16 10° WSW 18:34:13 25° SSW 18:40:19 10° SE daylight
18 May - 20:23:56 10° SW 20:27:25 13° SSW 20:30:54 10° S daylight
19 May - 13:49:54 10° SSW 13:53:58 16° SSE 13:58:10 10° ESE daylight
19 May - 15:41:13 10° SW 15:47:03 27° S 15:53:10 10° ESE daylight
19 May - 17:34:22 10° WSW 17:40:24 27° S 17:46:39 10° SE daylight
19 May - 19:29:07 10° WSW 19:33:39 17° SSW 19:38:16 10° SSE daylight
20 May - 12:57:40 10° S 13:00:21 12° SSE 13:03:05 10° SE daylight
20 May - 14:47:51 10° SW 14:53:19 25° SSE 14:59:02 10° ESE daylight
20 May - 16:40:36 10° WSW 16:46:36 28° S 16:52:51 10° SE daylight
20 May - 18:34:45 10° WSW 18:39:54 20° SSW 18:45:09 10° SSE daylight
21 May - 13:54:38 10° SSW 13:59:37 21° SSE 14:04:49 10° ESE daylight
21 May - 15:46:57 10° SW 15:52:49 28° S 15:58:57 10° SE daylight
21 May - 17:40:39 10° WSW 17:46:07 23° SSW 17:51:46 10° SE daylight
21 May - 19:37:54 10° SW 19:39:14 10° SSW 19:40:34 10° SSW daylight
22 May - 13:01:39 10° SSW 13:05:58 18° SSE 13:10:26 10° ESE daylight
22 May - 14:53:24 10° SW 14:59:04 27° S 15:04:59 10° ESE daylight
22 May - 16:46:44 10° WSW 16:52:20 25° S 16:58:12 10° SE daylight
22 May - 18:42:05 10° SW 18:45:31 14° SSW 18:49:00 10° S daylight
23 May - 12:09:02 10° S 12:12:22 14° SSE 12:15:48 10° SE daylight
23 May - 13:59:59 10° SW 14:05:21 25° S 14:10:58 10° ESE daylight
23 May - 15:52:57 10° WSW 15:58:35 26° S 16:04:29 10° SE daylight
23 May - 17:47:28 10° WSW 17:51:47 17° SSW 17:56:14 10° SSE daylight
24 May - 11:17:22 10° SSE 11:18:49 11° SSE 11:20:15 10° SE visible
24 May - 13:06:40 10° SW 13:11:41 22° SSE 13:16:53 10° ESE daylight
24 May - 14:59:16 10° WSW 15:04:50 27° S 15:10:41 10° SE daylight
24 May - 16:53:14 10° WSW 16:58:04 19° SSW 17:03:04 10° SSE daylight
